Fairbanks Eiels, AK

10:48 AM AKST on November 19, 2017 (GMT -0900)
Eielson Air Force Base

Weather History for PAEI - November, 2017

Change the Weather History Date:

Tuesday, November 14, 2017

  Actual Average Record
Temperature  
Mean Temperature 14 °F -  
Max Temperature 19 °F 7 °F 39 °F (2013)
Min Temperature 8 °F -5 °F -40 °F (1956)
Degree Days  
Heating Degree Days 52    
Moisture  
Dew Point 12 °F    
Average Humidity 88    
Maximum Humidity 93    
Minimum Humidity 84    
Precipitation  
Precipitation 0.00 in - - ()
Snow  
Snow 0.00 in - - ()
Snow Depth 15.00 in    
Sea Level Pressure  
Sea Level Pressure 30.45 in    
Wind  
Wind Speed 0 mph (West)    
Max Wind Speed 5 mph    
Max Gust Speed -    
Visibility 7 miles    
Events Fog , Snow    
Averages and records for this station are not official NWS values.
T = Trace of Precipitation, MM = Missing Value Source: NWS Daily Summary

Daily Weather History Graph

Daily Weather History Graph

Search for Another Location

Airport or City:

Trip Planner

Search our weather history database for the weather conditions in past years. The results will help you decide how hot, cold, wet, or windy it might be!

Date:

Astronomy

Nov. 14, 2017 Rise Set
Actual Time 9:20 AM AKST 3:44 PM AKST
Civil Twilight 8:18 AM AKST 4:46 PM AKST
Nautical Twilight 7:16 AM AKST 5:48 PM AKST
Astronomical Twilight 6:19 AM AKST 6:45 PM AKST
Moon 3:40 AM AKST (11/14) 3:53 PM AKST (11/14)
Length of Visible Light 8h 27m
Length of Day
6h 24m
Waning Crescent, 12% of the Moon is Illuminated
Nov 14
Waning Crescent
Nov 18
New
Nov 26
First Quarter
Dec 3
Full
Dec 9
Last Quarter

Hourly Weather History & Observations

Time (AKST) Temp. Windchill Dew Point Humidity Pressure Visibility Wind Dir Wind Speed Gust Speed Precip Events Conditions
12:11 AM 17.6 °F - 15.8 °F 93% 30.39 in 10.0 mi Calm Calm - N/A   Overcast
12:56 AM 19.0 °F - 16.5 °F 90% 30.40 in 10.0 mi Calm Calm - N/A   Overcast
1:56 AM 19.2 °F - 16.5 °F 89% 30.41 in 10.0 mi Calm Calm - N/A   Overcast
2:26 AM 19.4 °F 14.3 °F 15.8 °F 86% 30.41 in 10.0 mi South 3.5 mph - N/A   Overcast
2:56 AM 18.7 °F - 16.0 °F 89% 30.42 in 10.0 mi Calm Calm - 0.00 in   Overcast
3:56 AM 18.1 °F - 15.4 °F 89% 30.43 in 10.0 mi Calm Calm - N/A   Overcast
4:56 AM 17.8 °F - 15.1 °F 89% 30.43 in 10.0 mi Calm Calm - 0.00 in   Overcast
5:11 AM 17.6 °F - 15.8 °F 93% 30.43 in 7.0 mi Calm Calm - N/A Snow Light Snow
5:26 AM 17.6 °F - 15.8 °F 93% 30.43 in 10.0 mi Calm Calm - N/A   Overcast
5:41 AM 17.6 °F - 15.8 °F 93% 30.44 in 10.0 mi Calm Calm - N/A   Overcast
5:56 AM 17.8 °F - 15.3 °F 90% 30.44 in 8.0 mi Calm Calm - 0.00 in   Overcast
6:11 AM 17.6 °F 12.3 °F 14.0 °F 86% 30.44 in 10.0 mi SSE 3.5 mph - N/A Snow Light Snow
6:26 AM 17.6 °F - 15.8 °F 93% 30.44 in 10.0 mi Calm Calm - N/A   Overcast
6:47 AM 17.6 °F 12.3 °F 14.0 °F 86% 30.45 in 10.0 mi NNW 3.5 mph - N/A Snow Light Snow
6:56 AM 17.2 °F - 14.5 °F 89% 30.45 in 10.0 mi Calm Calm - 0.00 in Snow Light Snow
7:22 AM 17.6 °F - 14.0 °F 86% 30.44 in 10.0 mi Calm Calm - N/A   Overcast
7:26 AM 17.6 °F - 14.0 °F 86% 30.44 in 10.0 mi Calm Calm - N/A   Overcast
7:41 AM 17.6 °F - 14.0 °F 86% 30.45 in 10.0 mi Calm Calm - N/A   Overcast
7:56 AM 16.9 °F - 14.2 °F 89% 30.45 in 10.0 mi Calm Calm - N/A   Overcast
8:56 AM 16.7 °F - 14.2 °F 90% 30.46 in 10.0 mi Calm Calm - N/A   Overcast
9:41 AM 17.6 °F - 14.0 °F 86% 30.46 in 10.0 mi Calm Calm - N/A   Overcast
9:56 AM 16.5 °F - 13.8 °F 89% 30.46 in 10.0 mi Calm Calm - 0.00 in   Overcast
10:56 AM 16.3 °F - 13.6 °F 89% 30.46 in 10.0 mi Calm Calm - N/A   Overcast
11:41 AM 15.8 °F - 14.0 °F 93% 30.46 in 10.0 mi Calm Calm - N/A   Overcast
11:56 AM 16.0 °F - 13.3 °F 89% 30.46 in 10.0 mi Calm Calm - N/A   Mostly Cloudy
12:56 PM 16.0 °F - 13.3 °F 89% 30.46 in 10.0 mi Calm Calm - N/A   Mostly Cloudy
1:11 PM 15.8 °F - 12.2 °F 86% 30.46 in 8.0 mi Calm Calm - N/A Snow Light Snow
1:26 PM 15.8 °F - 14.0 °F 93% 30.46 in 10.0 mi Calm Calm - N/A   Mostly Cloudy
1:41 PM 15.8 °F - 14.0 °F 93% 30.46 in 10.0 mi Calm Calm - N/A   Scattered Clouds
1:56 PM 15.6 °F - 12.7 °F 88% 30.46 in 10.0 mi Calm Calm - 0.00 in   Mostly Cloudy
2:26 PM 15.8 °F - 14.0 °F 93% 30.46 in 10.0 mi Calm Calm - N/A   Partly Cloudy
2:41 PM 14.0 °F - 10.4 °F 86% 30.47 in 4.0 mi Calm Calm - N/A   Clear
2:56 PM 13.1 °F - 10.2 °F 88% 30.47 in 10.0 mi Calm Calm - N/A   Scattered Clouds
3:41 PM 8.6 °F - 5.0 °F 85% 30.47 in 5.0 mi Calm Calm - N/A   Haze
3:56 PM 9.0 °F - 5.4 °F 85% 30.47 in 6.0 mi Calm Calm - N/A   Scattered Clouds
4:09 PM 8.6 °F - 6.8 °F 92% 30.46 in 4.0 mi Calm Calm - N/A   Overcast
4:11 PM 10.4 °F - 6.8 °F 85% 30.46 in 0.8 mi Calm Calm - N/A   Overcast
4:46 PM 12.2 °F - 10.4 °F 92% 30.46 in 0.5 mi Calm Calm - N/A Fog Light Freezing Fog
5:23 PM 14.0 °F - 12.2 °F 93% 30.46 in 0.2 mi Calm Calm - N/A Fog Light Freezing Fog
5:59 PM 13.8 °F - 10.6 °F 87% 30.46 in 0.4 mi Calm Calm - 0.00 in Fog Light Freezing Fog
6:08 PM 14.0 °F - 10.4 °F 86% 30.46 in 0.4 mi Calm Calm - N/A Fog Light Freezing Drizzle
6:14 PM 14.0 °F - 10.4 °F 86% 30.46 in 0.4 mi Calm Calm - N/A   Light Freezing Drizzle
6:39 PM 12.2 °F - 10.4 °F 92% 30.46 in 0.2 mi Calm Calm - N/A Fog Light Freezing Fog
6:56 PM 12.6 °F - 9.1 °F 86% 30.46 in 0.2 mi Calm Calm - 0.00 in   Light Freezing Drizzle
7:06 PM 12.2 °F - 8.6 °F 85% 30.46 in 0.2 mi Calm Calm - N/A Fog Light Freezing Fog
7:52 PM 12.2 °F - 8.6 °F 85% 30.45 in 1.0 mi Calm Calm - N/A   Mist
7:58 PM 11.5 °F - 8.1 °F 86% 30.45 in 1.0 mi Calm Calm - N/A   Mist
8:59 PM 9.9 °F - 6.3 °F 85% 30.43 in 1.0 mi Calm Calm - 0.00 in   Mist
9:56 PM 9.9 °F 1.6 °F 6.3 °F 85% 30.42 in 0.8 mi North 4.6 mph - N/A   Mist
10:56 PM 8.6 °F - 4.6 °F 84% 30.41 in 0.8 mi Calm Calm - N/A   Overcast
11:56 PM 9.9 °F - 6.3 °F 85% 30.39 in 0.8 mi Calm Calm - 0.00 in   Mist